DMSP 5D-2 F13 DEB, 40413

Orbit data source: Space-Track

DMSP 5D-2 F13 DEB, 40413 is space debris in SSO originally from a launch on Fri, 24 Mar 1995 UTC launched from the Air Force Western Test Range (AFWTR). Debris objects in space refer to the collection of defunct objects orbiting the Earth. Examples of debris include non-operational satellites, rocket bodies, and fragments generated from explosions, collisions, or faulty payload assembly.

Loading next visibility...
Identifier
40413, 1995-015AA
Orbit
SSO
Country
Flag of USUS
Related business
Manufacturer
Unknown
Mission
Spacecraft
Bus & Motor
Unknown
Mass
Unknown
Launch date (UTC)
1995-03-24 (30 years ago)
Launch vehicle
Unknown
Launch site
Air Force Western Test Range (AFWTR)
Object type
Payload
Rocket body
Debris
Shape & HBR
Unknown
Radar Cross Section
Small (<0.1 m²)

Expand to show TLE details & history
Last TLE update: 1 day ago

TLE from 1 day ago
0 DMSP 5D-2 F13 DEB
1 40413U 95015AA  25241.80558282  .00003114  00000-0  11929-2 0  9997
2 40413  98.6457 267.1515 0014323  68.0612 292.2092 14.31249072545649
Epoch: 2025-08-29T19:20Z
TLE epoch observation values (Epoch: 2025-08-29T19:20:02.355Z)
Latitude
-0.00002°
Longitude
-1.10727°
Altitude
786.623 km
Speed
7.462 km/s
True Right ascension
17h 48m 36s
True Declination
0° 00' 00"
Sunlit
Object was in daylight at epoch
Visualization orbit readout
Latitude
Unknown
Longitude
Unknown
Altitude
Unknown
Speed
Unknown
Apparent Right ascension
Unknown
Apparent Declination
Unknown
Sunlit
N/A
Visualization observer readout
Local Sidereal Time
16:41:35
Azimuth
Unknown
Elevation
Unknown
Doppler factor
Unknown
Orbital elements
Apogee altitude
794.959 km
Perigee altitude
774.44 km
Semi-major axis
7,162.836 km
Eccentricity
0.00143
Inclination
98.6457°
RAAN
267.1515°
Arg. of periapsis
68.0612°
True anomaly
292.05714°
Mean anomaly
292.2092°
Eccentric anomaly
292.13318°
Mean motion
3.58027 °/min
Orbital period
100.55 mins
BSTAR
0.0011929
Loading maneuver chart data...
Computing Atmospheric mass density...

Documentation

Showing up to 5 results
|